Location: Gretna
(49.0079°N, 97.5611°W)
Time: 02:34:23
(UTC-06:00)

Envisat - Visible Passes

Search period start: 11 December 2018 00:00
Search period end: 21 December 2018 00:00
Orbit: 764 x 766 km, 98.2° (Epoch: 11 December)

Date Brightness Start Highest point End Pass type
(mag) Time Alt. Az. Time Alt. Az. Time Alt. Az.
11 Dec 5.7 07:11:38 10° NE 07:15:31 21° E 07:19:21 10° SE visible
11 Dec 3.3 18:29:49 10° SE 18:34:34 42° ENE 18:39:21 10° N visible
11 Dec 4.7 20:09:17 10° SSW 20:13:44 30° W 20:18:11 10° NNW visible
12 Dec 6.4 06:37:51 10° E 06:38:15 10° E 06:38:39 10° E visible
12 Dec 4.1 17:54:15 10° ESE 17:58:09 23° ENE 18:02:03 10° N visible
12 Dec 3.4 19:31:45 10° S 19:36:46 61° W 19:41:50 10° NNW visible
13 Dec 4.9 07:36:39 10° NNE 07:41:18 35° E 07:45:55 10° SSE visible
13 Dec 4.7 17:19:52 10° ENE 17:21:54 12° NE 17:23:57 10° NNE visible
13 Dec 2.8 18:54:58 10° SSE 19:00:01 68° ENE 19:05:05 10° N visible
13 Dec 5.4 20:36:02 10° SW 20:39:33 19° W 20:43:04 10° NW visible
14 Dec 5.8 07:00:49 10° NE 07:04:11 17° E 07:07:32 10° SE visible
14 Dec 3.5 18:18:54 10° SE 18:23:27 35° ENE 18:28:02 10° N visible
14 Dec 4.3 19:57:46 10° SSW 20:02:26 37° W 20:07:09 10° NNW visible
15 Dec 4.3 17:43:35 10° ESE 17:47:05 19° ENE 17:50:35 10° NNE visible
15 Dec 3.1 19:20:29 10° S 19:25:33 75° WSW 19:30:40 10° NNW visible
15 Dec 6.0 21:04:12 10° W 21:05:28 11° W 21:06:44 10° WNW visible
16 Dec 5.2 07:25:38 10° NE 07:30:01 28° E 07:34:23 10° SSE visible
16 Dec 4.8 17:10:14 10° ENE 17:10:54 10° NE 17:11:33 10° NE visible
16 Dec 3.0 18:43:54 10° SSE 18:48:51 55° ENE 18:53:50 10° N visible
16 Dec 5.2 20:24:15 10° SW 20:28:13 23° W 20:32:13 10° NW visible
17 Dec 6.0 06:50:11 10° NE 06:52:50 14° E 06:55:29 10° ESE visible
17 Dec 3.8 18:08:02 10° ESE 18:12:20 29° ENE 18:16:41 10° N visible
17 Dec 4.0 19:46:20 10° S 19:51:11 45° W 19:56:05 10° NNW visible
18 Dec 4.4 17:33:01 10° E 17:36:01 16° NE 17:39:02 10° NNE visible
18 Dec 2.9 19:09:16 10° SSE 19:14:21 89° ENE 19:19:28 10° NNW visible
18 Dec 5.8 20:51:34 10° WSW 20:54:06 14° W 20:56:39 10° NW visible
19 Dec 5.6 07:14:40 10° NE 07:18:43 23° E 07:22:44 10° SE visible
19 Dec 3.2 18:32:53 10° SE 18:37:42 45° ENE 18:42:33 10° N visible
19 Dec 4.8 20:12:35 10° SSW 20:16:55 28° W 20:21:16 10° NW visible
20 Dec 6.2 06:39:59 10° ENE 06:41:28 11° E 06:42:58 10° ESE visible
20 Dec 4.0 17:57:14 10° ESE 18:01:15 24° ENE 18:05:17 10° N visible
20 Dec 3.6 19:34:57 10° S 19:39:56 56° W 19:44:57 10° NNW visible
